Location: Seattle
(47.6064°N, 122.3308°W)
Time: 11:28:17
(UTC-07:00)

Explorer 7 - Pass Details

Date: 05 August 2021
Orbit: 484 x 676 km, 50.3° (Epoch: 22 September)

Event Time Altitude Azimuth Distance (km) Brightness Sun altitude
Exits shadow 04:53:34 13° 225° (SW) 1,504 8.4 -9.2°
Maximum altitude 04:56:48 50° 150° (SSE) 630 7.1 -8.8°
Drops below altitude 10° 05:00:33 10° 75° (ENE) 1,717 10.6 -8.3°
Sets 05:02:50 0° 70° (ENE) 2,630 12.1 -8.0°
